'tomaso' - 'Tomaso Greksák'

Prelezy

<< < 1 2345 > >>
Spolu 1547 v 16 stránkach.
. Cesta Obtiažnosť Štýl Oblasť Dátum Body  
1 Mičkena 6c+ RP Osp - Mišja Peč 10.03.2019 650
2 Kindergarten Direct 7b OS Osp - Mišja Peč 10.03.2019 800
3 Matamoros 7c RP Osp - Mišja Peč 10.03.2019 900
4 We fly 7b+ PP Leonidio 02.03.2019 850
5 Ntinta 7a+ Flash Leonidio 01.03.2019 750
6 The roof...is on fire 8a Flash Leonidio 01.03.2019 1000
7 Vromika Myala 7a+ Flash Leonidio 26.02.2019 750
8 El Baile deTango 7b+ Flash Leonidio 25.02.2019 850
9 Lovers for the weekend 7b+ Flash Leonidio 25.02.2019 850
10 Tufa Liason 6c Flash Leonidio 25.02.2019 600
11 Crazy dog lady V6 Solo Bishop - Buttermilks 26.01.2019 675
12 Pet the kitty V5 Flash Bishop - Buttermilks 26.01.2019 625
13 Led Zeppelin sit 7C+ Solo Bishop - Buttermilks 26.01.2019 950
14 Led Zeppelin 7B+ Flash Bishop - Buttermilks 25.01.2019 850
15 Sharma Flake 7C Solo Bishop - Buttermilks 25.01.2019 900
16 Enemy at the gates V7 Solo Bishop - Buttermilks 25.01.2019 775
17 Solitare 7B+ Flash Bishop - Buttermilks 25.01.2019 850
18 Judge Not 7C Flash Bishop - Buttermilks 25.01.2019 900
19 Matt's project sit 7C Solo Bishop - Buttermilks 20.01.2019 900
20 Sidewinder V10 Solo Bishop - Buttermilks 20.01.2019 950
21 He got game right V10 Solo Bishop - Happy Boulders 16.01.2019 950
22 Mad Cow V11 Solo Bishop - Sad boulders 15.01.2019 1000
23 Queen Sweet Nectar 7C Solo Bishop - Buttermilks 13.01.2019 900
24 Pinch Arete V7 Solo Bishop - Buttermilks 12.01.2019 775
25 Working Class V8 Solo Bishop - Buttermilks 12.01.2019 825
26 Soul Slinger direct V8 Solo Bishop - Buttermilks 12.01.2019 825
27 The Love Machine V10 Solo Joshua Tree 09.01.2019 950
28 100 SEkúnd 7C Solo Malé skalky - Chtelnica 28.12.2018 900
29 Hlboké poníženie 7A+ Solo Malé skalky - Chtelnica 28.12.2018 750
30 Vyvolávač slaniny 7A Flash Malé skalky - Chtelnica 28.12.2018 700
31 Second Life 8A+ Solo Chironico 21.12.2018 1050
32 Rotkenlichen tarv's 7C Solo Chironico 19.12.2018 900
33 Well the welness 7C+ Solo Chironico 18.12.2018 950
34 Arabald 7B Solo Chironico 17.12.2018 800
35 C'est ? Sept B 7A+ Flash Fontainebleau 19.11.2018 750
36 Vandale 7C Solo Fontainebleau 19.11.2018 900
37 Les Tétines 7B Solo Fontainebleau 18.11.2018 800
38 Insolence 7C Solo Fontainebleau 18.11.2018 900
39 Insomnie (assis) 7B Solo Fontainebleau 18.11.2018 800
40 Rituel (assis) 7C+ Solo Fontainebleau 18.11.2018 950
41 Rituel 7A+ Flash Fontainebleau 18.11.2018 750
42 Movement activated (droite) 7A+ Solo Fontainebleau 18.11.2018 750
43 Cuicuishkaniev 7A+ Solo Fontainebleau 09.11.2018 750
44 Cuicuishkaniev 7A+ Flash Fontainebleau 09.11.2018 750
45 Cuicuishovsky 7A Solo Fontainebleau 09.11.2018 700
46 Soupçon 7A Flash Fontainebleau 09.11.2018 700
47 Rude Boy 7A Solo Fontainebleau 08.11.2018 700
48 les Pieds dans la Lune 7A+ Flash Fontainebleau 08.11.2018 750
49 Sens Dessus Dessous 7B+ Solo Fontainebleau 08.11.2018 850
50 The Zyno 7B Flash Fontainebleau 08.11.2018 800
51 Duel dans la Lune 6C Flash Fontainebleau 08.11.2018 600
52 l´Americáin (gauche) 7C Solo Fontainebleau 05.11.2018 900
53 Mine de Rien (assis) 7C Solo (3) Fontainebleau 02.11.2018 900
54 la Jalousie (assis) 7C Solo Fontainebleau 29.10.2018 900
55 La Jalousie 6b Flash Fontainebleau 29.10.2018 500
56 Samarkand (rallongé par le bas) 7B Flash Fontainebleau 29.10.2018 800
57 Opera Vertical 7A Solo Fontainebleau 28.10.2018 700
58 le Pillier Droyer (assis) 7A Flash Fontainebleau 28.10.2018 700
59 Dans les Bois Éternels 7B Solo Fontainebleau 28.10.2018 800
60 Terminator 7A+ Solo Fontainebleau 18.10.2018 750
61 Lietajúci mamut 6C+ Solo (2) Rozbehy 30.09.2018 650
62 Teória relativity 7C+ Solo Rozbehy 30.09.2018 950
63 Miesiželezo 7C+ Solo Malé skalky - Chtelnica 29.09.2018 950
64 Valibuk a buk SD 7A+ Solo Malé skalky - Chtelnica 29.09.2018 750
65 Stret predstáv 7B+ Solo Plavecké Podhradie - Lom 22.09.2018 850
66 Bod stretu 7B+ Solo Plavecké Podhradie - Lom 22.09.2018 850
67 Nábojnica 6B+ Flash Plavecké Podhradie - Lom 22.09.2018 550
68 Modrý bod (zľava) 7A+ Solo (2) Plavecké Podhradie - Lom 22.09.2018 750
69 Stretávka 7B Flash Plavecké Podhradie - Lom 22.09.2018 800
70 Imaginácia 7B+/7C Solo (3) Plavecké Podhradie - Lom 22.09.2018 875
71 Medveď SD 8A Solo Makita Zbrojnica 16.09.2018 1000
72 Wormhole 7B+ Solo Rocklands 27.08.2018 850
73 Scooby Doo 7C Solo Rocklands 27.08.2018 900
74 Hot Zucchini 8A Solo Rocklands 27.08.2018 1000
75 On the road again 7C+ Solo Rocklands 24.08.2018 950
76 The house is on fire 7C Solo Rocklands 24.08.2018 900
77 Wrecking ball 8A Solo Rocklands 24.08.2018 1000
78 The Section 7C+ Flash Rocklands 24.08.2018 950
79 Fruchtzwerg 7C Solo Rocklands 23.08.2018 900
80 Push the tempo extended 7B+ Solo Rocklands 23.08.2018 850
81 Electric Copper 7C+/8A Solo Rocklands 23.08.2018 975
82 Bokkoms 7B Solo (2) Rocklands 22.08.2018 800
83 Running out of options 7C Solo Rocklands 21.08.2018 900
84 Singha Braga sit-start 7C+ Solo Rocklands 21.08.2018 950
85 Singha Braga 7C Solo Rocklands 21.08.2018 900
86 Premium 7C Solo Rocklands 20.08.2018 900
87 Last day in paradise 7C Solo Rocklands 19.08.2018 900
88 Cedar Spine SD 7C Solo Rocklands 19.08.2018 900
89 Benji´s carwash 7C+/8A Solo Rocklands 19.08.2018 975
90 Stretched and pressed 7C Solo Rocklands 19.08.2018 900
91 A for Epic 7A Flash Rocklands 15.08.2018 700
92 Squeez mylemons 7A Solo Rocklands 13.08.2018 700
93 Shadow of ourselves 7C Solo Rocklands 13.08.2018 900
94 Matter of taste 7C Solo Rocklands 13.08.2018 900
95 Fin 7A Solo Rocklands 13.08.2018 700
96 Girlfriend's problem 7A+ Flash Rocklands 13.08.2018 750
97 Porcupine left start (The Tube) 7A+ Flash Rocklands 10.08.2018 750
98 The Stimulator 7B+ Solo (2) Rocklands 10.08.2018 850
99 The crack 6C Flash Rocklands 09.08.2018 600
100 Roadkill Café 7C Solo Rocklands 09.08.2018 900
<< < 1 2345 > >>
Spolu 1547 v 16 stránkach.